View from above orbital plane
|
View from above satellite
|
Ground track
|
The orbit data is extracted from the following two-line orbital elements,
1 12848U 81094A 21015.85018433 .00001205 00000-0 69780-4 0 9998
2 12848 82.4803 233.1316 0591093 177.3259 183.1345 14.25583630975856
Epoch (UTC): | 15 January 2021 20:24:15 |
Eccentricity: | 0.0591093 |
inclination: | 82.4803° |
perigee height: | 382 km |
apogee height: | 1231 km |
right ascension of ascending node: | 233.1316° |
argument of perigee: | 177.3259° |
revolutions per day: | 14.25583630 |
mean anomaly at epoch: | 183.1345° |
orbit number at epoch: | 97585 |
The dashed part of the orbit path shows where the satellite is in the earth's shadow,
|
|